This demonstration page uses our WeatherBlox Daily Observations layout. Learn more.

Left ArrowRight Arrow

39.95238, -75.16362

Hourly Observations for June 20, 2022

Temp ( °F °C ) Dew Point ( °F °C ) Humidity (%) Winds ( mph kmh ) Pressure ( in mb ) Visibility ( mi km ) Precip ( " mm )
12:54 am 00:54 Clear 63 17.2 38 3.3 40 40 NNW 7 11 30.12 1020 10 16 0.00 0.00
1:54 am 01:54 Mostly Clear 62 16.7 38 3.3 41 41 NW 7 11 30.12 1020 10 16 0.00 0.00
2:54 am 02:54 Mostly Clear 62 16.7 38 3.3 41 41 NW 7 11 30.12 1020 10 16 0.00 0.00
3:14 am 03:14 Partly Cloudy 61 16.1 39 3.9 44 44 NW 7 11 30.13 1020 10 16 0.00 0.00
3:54 am 03:54 Partly Cloudy 61 16.1 39 3.9 44 44 NW 7 11 30.12 1020 10 16 0.00 0.00
4:54 am 04:54 Mostly Cloudy 58 14.4 40 4.4 51 51 NNW 7 11 30.13 1020 10 16 0.00 0.00
5:54 am 05:54 Partly Cloudy 58 14.4 40 4.4 51 51 NNW 6 9 30.15 1021 10 16 0.00 0.00
6:54 am 06:54 Partly Cloudy 60 15.6 40 4.4 47 47 NNW 8 13 30.17 1022 10 16 0.00 0.00
7:54 am 07:54 Mostly Cloudy 66 18.9 41 5 40 40 NW 10 17 30.17 1022 10 16 0.00 0.00
8:54 am 08:54 Sunny 69 20.6 40 4.4 35 35 NNW 10 17 30.18 1022 10 16 0.00 0.00
9:54 am 09:54 Mostly Cloudy 70 21.1 41 5 35 35 NW 7 11 30.17 1022 10 16 0.00 0.00
10:54 am 10:54 Mostly Cloudy 72 22.2 43 6.1 35 35 NW 5 7 30.17 1022 10 16 0.00 0.00
11:54 am 11:54 Partly Cloudy 75 23.9 40 4.4 28 28 NNW 8 13 30.16 1022 10 16 0.00 0.00
12:54 pm 12:54 Partly Cloudy 77 25 40 4.4 26 26 WSW 9 15 30.16 1021 10 16 0.00 0.00
1:54 pm 13:54 Partly Cloudy 78 25.6 42 5.6 28 28 WNW 10 17 30.15 1021 10 16 0.00 0.00
2:54 pm 14:54 Partly Cloudy 79 26.1 39 3.9 24 24 NW 10 17 30.13 1020 10 16 0.00 0.00
3:54 pm 15:54 Partly Cloudy 80 26.7 39 3.9 23 23 VRB 6 9 30.13 1020 10 16 0.00 0.00
4:54 pm 16:54 Mostly Cloudy 81 27.2 40 4.4 23 23 NW 12 19 30.12 1020 10 16 0.00 0.00
5:54 pm 17:54 Mostly Cloudy 82 27.8 40 4.4 22 22 NW 12 19 30.11 1020 10 16 0.00 0.00
6:54 pm 18:54 Mostly Cloudy 81 27.2 40 4.4 23 23 WNW 10 17 30.11 1020 10 16 0.00 0.00
7:54 pm 19:54 Mostly Cloudy 80 26.7 40 4.4 24 24 WNW 8 13 30.10 1019 10 16 0.00 0.00
8:54 pm 20:54 Mostly Cloudy 76 24.4 45 7.2 33 33 SW 7 11 30.10 1019 10 16 0.00 0.00
9:54 pm 21:54 Partly Cloudy 74 23.3 48 8.9 40 40 WSW 7 11 30.12 1020 10 16 0.00 0.00
10:54 pm 22:54 Cloudy 72 22.2 52 11.1 50 50 WSW 7 11 30.13 1020 10 16 0.00 0.00
11:54 pm 23:54 Mostly Cloudy 71 21.7 47 8.3 42 42 WSW 6 9 30.13 1020 10 16 0.00 0.00

Powered by AerisWeather